Theta_e
323 323 324 325 324 320 319 320 319 318 317 316 317 318 318 317 316 317 319 321 323 322 321 327 334 335 338 342 344 346 340 345 341 340 339 338 336 337 342 341 345 348 344 343 344
323 323 323 324 325 320 319 319 318 319 318 316 316 316 317 317 317 317 319 320 322 322 320 335 336 334 338 342 343 341 340 340 338 339 339 336 337 337 339 351 351 347 344 343 344
322 322 323 323 325 320 320 318 317 317 317 317 316 316 316 316 316 323 323 320 320 320 321 332 332 331 334 338 337 336 336 336 336 333 332 332 333 333 335 350 347 344 343 343 343
320 321 322 323 324 322 320 318 317 316 317 317 317 316 316 316 336 333 329 325 321 319 327 333 332 330 333 335 334 337 336 336 334 332 332 331 331 331 332 338 346 344 343 342 342
317 319 321 322 323 324 321 318 318 317 315 316 316 316 315 318 328 328 323 321 319 320 327 335 330 330 332 332 332 332 333 333 332 331 331 330 330 331 331 342 347 344 343 343 342
315 315 319 322 322 324 323 318 319 321 314 315 315 316 317 334 331 325 324 322 319 320 328 332 329 330 330 330 330 332 333 333 331 331 331 330 330 331 330 331 350 345 343 343 343
312 313 316 320 321 324 324 318 320 320 315 315 315 315 323 332 330 325 323 320 321 325 330 328 328 328 328 327 331 332 330 329 330 331 330 330 330 329 330 330 333 350 345 345 344
311 312 313 318 321 324 324 318 319 319 316 314 315 320 334 326 331 328 329 330 329 328 328 328 329 329 328 328 328 330 329 328 330 330 329 328 331 329 330 330 331 348 351 348 347
310 311 312 316 321 325 322 319 319 320 316 315 324 332 334 327 332 330 331 332 330 329 329 329 328 328 329 326 328 331 330 331 330 330 330 330 331 331 331 330 334 335 349 351 350
310 311 311 314 320 325 323 321 321 321 320 318 330 331 334 328 329 332 332 331 330 330 330 330 328 326 326 327 329 328 328 328 330 329 328 328 330 331 334 337 337 336 339 349 352
310 311 311 313 319 325 325 328 330 327 322 328 331 334 330 328 328 330 328 329 329 330 330 331 327 328 330 330 328 328 328 329 331 329 329 328 330 330 335 337 337 339 349 347 350
310 311 312 312 321 326 328 327 325 326 327 327 328 329 329 328 327 328 328 328 329 327 330 333 330 331 330 329 329 329 328 328 331 329 328 327 331 330 332 335 339 345 347 354 354
310 310 311 313 327 331 331 329 327 327 327 329 330 328 328 326 326 326 328 327 328 329 330 329 329 331 330 330 329 329 329 330 330 330 329 329 330 332 333 338 341 345 350 354 355
310 310 311 313 331 330 331 329 328 326 326 331 327 327 328 327 326 327 327 328 329 328 329 329 330 329 329 330 330 330 331 331 331 329 327 329 328 333 331 335 338 343 345 348 353
310 310 311 311 319 330 330 328 328 326 335 329 326 328 327 326 328 327 327 328 328 328 330 329 331 330 330 331 330 331 330 329 330 328 328 328 327 333 331 335 339 340 342 343 347
310 310 311 311 316 329 329 327 328 328 333 329 327 326 325 326 327 327 327 328 328 328 328 329 330 329 329 330 330 330 329 329 330 327 329 330 333 335 335 336 339 340 343 343 344
310 310 310 311 326 329 328 328 331 332 332 328 326 326 325 325 326 327 327 326 326 328 328 329 329 328 329 329 329 329 329 330 331 331 335 333 336 335 337 337 337 336 339 342 344
310 310 311 313 313 325 328 329 336 335 332 330 328 326 325 326 327 328 327 326 326 326 327 329 332 329 330 330 330 330 329 327 334 334 333 332 334 339 336 336 337 337 337 339 345
310 311 312 314 320 326 328 332 334 335 334 333 329 327 326 327 328 328 327 327 328 327 329 331 333 330 331 330 328 330 330 329 328 329 328 330 338 336 334 333 334 335 337 338 338
309 310 314 316 326 326 328 330 332 331 331 332 333 331 331 329 327 328 330 330 330 330 329 331 330 331 331 330 330 329 329 326 326 331 333 333 339 337 336 334 333 333 333 333 333
308 321 324 322 324 326 327 327 328 328 329 332 332 331 332 331 330 329 330 330 330 330 329 330 330 329 330 331 330 329 328 330 328 328 331 332 340 337 335 334 333 332 334 334 335
308 321 325 326 324 325 324 325 325 326 329 329 330 330 331 333 334 333 333 331 332 331 330 330 328 333 331 330 330 332 332 329 330 331 327 333 331 330 332 332 332 332 332 337 337
310 319 323 326 325 323 324 323 323 324 330 329 328 329 329 331 334 334 333 331 331 330 331 330 331 330 330 328 328 332 332 332 331 330 330 333 330 331 330 330 332 335 336 336 336
313 324 318 322 324 323 323 324 327 328 327 328 327 329 328 329 330 332 332 331 328 327 327 329 328 330 327 327 326 330 330 332 329 329 329 330 330 329 331 332 334 333 333 333 334
314 321 325 326 323 323 322 323 325 327 326 327 328 329 329 330 331 330 330 330 329 327 328 326 329 329 326 326 327 328 328 327 327 328 327 326 328 326 332 333 334 335 334 333 331
310 321 323 325 326 329 329 324 324 328 328 327 328 328 326 329 330 333 331 330 332 329 329 326 330 330 331 330 329 329 328 327 326 326 325 324 325 331 335 334 333 332 332 331 332
315 316 319 326 325 324 327 328 326 326 327 327 326 329 330 330 329 329 330 328 330 332 332 332 332 333 333 331 330 329 328 327 325 324 325 326 328 333 333 332 332 332 333 333 332
Wind_Speed
20 20 20 20 20 15 14 13 10 8 7 7 7 7 8 8 9 12 13 7 4 6 3 0 4 5 11 23 24 31 1 5 7 10 5 9 7 6 27 33 20 20 37 40 39
20 20 20 20 21 16 17 14 11 9 8 6 6 6 6 7 9 14 8 10 9 8 4 4 7 10 15 21 23 10 3 4 4 4 5 13 11 13 14 26 29 32 36 39 40
20 20 20 21 21 17 18 13 11 9 5 7 6 5 5 6 6 5 5 11 9 8 6 6 9 15 20 23 14 4 1 6 6 16 16 8 11 12 10 19 39 43 44 43 40
21 21 21 21 20 18 17 12 11 8 4 4 6 5 5 4 3 2 7 7 11 9 9 3 8 15 9 7 19 1 5 8 8 9 2 4 8 8 9 10 41 50 49 45 41
21 20 21 21 20 17 17 10 9 8 4 1 5 7 6 3 6 6 4 7 11 11 12 4 12 17 7 12 18 8 7 14 13 10 5 5 1 2 3 23 42 47 45 44 41
21 21 20 20 20 17 16 8 7 8 4 3 7 9 5 5 4 6 2 6 10 11 4 5 11 16 10 14 8 15 14 8 16 2 2 3 6 7 13 9 42 44 46 44 42
21 20 20 20 19 17 15 7 4 7 3 4 7 8 5 5 5 3 2 7 8 9 7 7 9 11 19 10 16 22 8 9 9 5 3 2 5 6 8 6 16 38 40 41 40
20 20 19 19 18 16 15 5 2 5 2 5 7 2 5 5 5 2 8 8 7 4 9 13 9 12 13 18 21 11 7 4 6 5 7 8 5 7 4 8 8 34 37 39 41
21 19 18 17 17 13 12 5 0 3 2 6 4 4 7 7 12 6 6 7 6 7 8 7 9 12 16 7 8 5 8 6 5 5 0 2 6 4 5 13 13 14 30 35 39
21 20 18 16 15 9 8 4 2 1 1 6 5 6 8 9 12 10 6 7 7 7 9 10 7 4 4 1 4 7 8 4 8 3 7 8 7 5 11 22 17 12 12 23 32
21 20 18 15 12 6 7 3 5 1 9 10 10 6 2 9 12 11 9 5 8 8 7 17 3 7 11 8 5 8 8 8 2 6 3 5 9 8 12 21 15 13 33 20 22
21 21 18 14 8 2 6 7 5 6 10 19 23 21 12 13 9 12 12 8 9 8 12 2 9 9 6 5 4 5 7 8 3 8 5 7 6 9 8 15 23 25 21 31 27
21 21 19 12 1 2 6 5 9 9 5 13 21 17 10 12 16 18 18 16 10 9 10 8 6 3 3 3 7 6 6 3 3 5 2 5 1 7 8 25 26 25 24 25 22
19 20 18 10 1 5 3 4 10 6 3 6 14 12 20 12 10 18 19 15 7 10 10 6 6 5 3 6 4 7 9 8 6 5 4 1 4 5 9 9 14 26 21 18 21
19 18 13 15 9 1 7 9 10 2 2 11 13 10 19 14 6 22 15 17 13 10 3 8 2 3 4 7 7 1 7 7 6 5 5 12 4 6 9 9 14 20 26 22 19
18 16 16 13 8 2 10 10 5 1 6 9 8 8 11 19 11 23 16 15 14 7 10 7 4 3 2 4 2 5 6 8 6 2 3 10 4 3 5 14 15 21 29 32 28
18 14 17 13 6 0 4 8 1 4 10 11 12 12 10 9 10 10 8 7 4 2 6 10 12 7 9 1 4 6 3 4 6 2 5 8 7 7 10 13 15 16 27 27 24
19 16 15 14 10 8 6 2 5 9 10 11 12 14 10 10 11 12 9 7 10 9 6 5 9 11 8 4 2 4 3 4 2 2 4 8 2 2 9 20 22 24 23 22 25
19 15 18 9 4 7 6 4 6 6 9 10 10 12 9 13 11 9 11 12 11 13 7 2 4 9 7 7 7 4 3 1 2 5 3 2 5 6 10 9 12 14 27 26 20
21 19 17 11 13 7 5 6 6 11 16 9 2 5 5 13 11 9 9 9 9 8 10 3 4 5 1 8 1 4 2 5 4 2 4 2 2 4 7 8 8 16 23 19 17
15 10 5 18 21 12 5 6 9 22 24 1 7 8 7 7 5 9 10 9 8 7 10 4 3 9 6 4 8 1 2 3 4 4 1 3 1 4 6 8 8 13 20 18 15
5 3 13 17 8 9 9 7 9 21 2 2 5 8 6 9 9 4 6 3 9 15 8 3 2 1 6 8 9 4 6 5 5 6 2 2 5 7 8 8 9 16 17 20 15
10 9 7 15 5 7 12 18 25 19 4 4 4 6 7 6 6 6 8 9 18 8 3 3 3 3 8 7 7 4 2 5 0 3 5 4 5 4 14 16 21 22 19 14 9
6 4 11 12 17 10 8 13 13 13 7 9 8 6 5 6 5 6 7 6 21 11 10 6 2 5 5 6 6 6 8 5 6 3 5 5 5 7 3 10 14 13 8 5 6
3 6 12 3 9 9 9 13 17 6 8 7 6 5 6 3 5 5 7 10 11 12 5 4 1 2 5 9 8 10 10 9 5 5 3 6 6 8 1 8 13 18 17 15 12
5 7 13 18 17 10 6 12 14 10 9 7 5 9 8 4 5 4 6 5 5 2 5 4 3 4 4 7 9 12 11 10 9 8 9 9 6 5 16 16 14 12 9 9 9
8 9 8 12 9 8 6 4 6 8 11 14 9 2 5 10 13 10 11 16 7 5 3 4 3 3 2 6 9 7 6 9 11 8 8 4 3 5 6 8 7 13 13 11 8
Wind_Direction
5 2 2 1 360 358 352 338 322 313 302 283 267 264 266 263 257 253 247 231 245 248 264 66 4 318 267 254 258 248 302 308 22 73 328 32 29 23 131 135 162 185 149 149 151
4 1 1 360 360 356 350 342 330 305 282 274 261 258 265 265 263 257 238 222 245 255 253 139 256 277 259 265 262 215 178 274 20 55 40 2 357 25 100 112 114 126 136 147 154
2 360 360 360 0 357 353 350 348 341 295 249 245 243 245 259 290 264 265 221 226 235 215 226 277 294 289 286 256 273 248 335 0 38 18 7 322 6 18 127 135 137 144 152 158
360 358 358 359 359 357 356 351 348 345 331 239 229 216 211 197 39 334 281 241 223 215 183 188 276 280 278 284 331 179 286 281 7 2 307 288 320 357 5 106 145 147 152 156 163
357 356 356 356 357 355 356 352 358 3 2 189 192 188 174 232 266 319 300 229 211 199 189 245 274 279 298 327 336 335 335 356 332 296 52 344 295 211 0 111 143 147 153 159 166
354 354 354 353 355 353 354 352 358 7 28 125 160 169 165 263 268 287 296 203 189 185 178 258 268 307 312 297 291 280 296 298 284 71 208 291 189 102 79 93 145 152 159 164 170
352 353 352 350 352 352 353 351 353 7 38 128 153 166 227 271 287 217 99 160 155 164 203 226 282 305 309 308 301 312 310 285 254 193 138 347 90 112 130 165 176 157 162 166 172
349 351 350 348 349 350 349 341 341 19 65 129 148 178 261 213 236 229 115 105 155 280 262 295 318 308 281 280 290 289 274 270 207 216 173 145 180 141 136 158 62 158 164 170 174
345 347 348 347 345 350 350 358 99 36 82 144 123 325 286 206 185 196 160 185 179 245 254 272 289 272 272 271 301 276 250 170 144 121 321 70 107 84 92 116 65 39 164 169 173
342 343 345 345 342 348 356 9 7 324 253 195 243 299 219 215 184 196 210 239 198 230 234 235 238 234 283 272 272 332 357 30 135 119 32 0 121 84 75 93 80 67 111 160 167
338 339 341 342 340 348 5 351 341 280 238 216 289 231 145 182 171 193 198 214 227 254 238 225 179 236 244 199 5 345 348 340 332 105 67 277 135 115 105 102 90 89 69 108 156
335 336 338 339 336 352 12 14 24 322 293 261 266 265 150 155 178 202 189 204 217 246 241 228 235 248 34 15 354 330 307 303 249 123 124 275 164 152 125 126 99 70 93 112 115
333 332 335 340 24 22 337 349 350 338 262 284 224 228 190 176 213 186 188 218 260 236 248 220 256 80 22 330 286 271 249 298 27 356 305 267 230 130 125 116 108 96 91 106 117
329 328 336 345 255 327 21 2 322 331 300 252 185 211 210 209 244 200 188 205 221 234 267 228 130 72 317 283 46 39 7 0 338 2 274 93 245 188 148 135 123 114 109 106 105
323 322 330 326 305 62 4 342 327 285 303 140 175 187 175 194 171 158 181 224 259 294 335 266 154 150 274 73 20 14 13 320 314 316 332 299 79 244 145 135 135 137 138 136 129
315 317 311 309 285 41 346 331 312 326 245 173 147 162 164 211 254 162 170 222 272 307 314 259 268 129 251 35 98 333 306 308 282 220 333 255 142 290 175 141 141 147 149 144 140
308 302 293 285 208 174 337 315 269 234 152 157 164 171 191 191 235 152 177 201 218 244 262 277 252 191 152 322 261 233 330 324 357 18 220 317 79 202 108 142 139 140 142 152 152
307 297 279 264 248 239 338 319 242 255 245 140 164 167 193 194 218 174 170 212 219 229 263 274 323 147 149 182 91 317 113 133 285 52 280 321 308 238 101 96 124 138 140 125 140
312 297 277 232 181 176 263 231 219 226 343 328 157 163 192 205 218 177 187 202 229 200 181 349 58 77 144 100 110 320 11 207 37 320 45 160 63 42 112 119 137 126 111 116 119
321 313 273 198 190 178 218 249 267 306 313 341 300 185 234 209 207 172 186 208 241 132 111 32 7 317 142 93 184 180 245 17 346 314 289 338 145 182 144 168 126 104 111 111 108
326 320 319 162 178 210 218 238 276 270 262 318 329 329 311 277 232 190 200 237 220 118 97 73 105 290 127 180 200 95 242 251 141 110 190 9 293 124 106 119 124 136 135 131 125
307 273 155 156 178 216 237 247 256 275 271 34 305 294 301 314 308 311 153 81 46 133 108 53 127 304 263 303 318 143 179 120 108 309 277 152 269 147 164 151 119 104 104 114 109
331 278 261 200 216 231 258 245 249 260 239 158 244 259 279 319 338 1 77 66 58 52 59 352 8 15 327 340 351 285 154 90 20 126 236 150 254 90 76 78 85 97 101 105 113
323 286 239 231 230 261 278 291 282 190 279 324 268 301 286 257 317 327 100 110 89 103 91 63 80 147 203 252 266 304 312 189 187 149 233 223 258 308 100 134 116 106 94 68 61
253 263 354 296 229 242 245 269 291 186 172 275 334 319 301 352 298 291 289 113 119 147 110 101 146 346 302 297 311 316 314 323 322 256 208 250 277 277 356 124 103 92 81 68 52
309 347 334 301 301 306 278 243 268 280 145 199 238 264 262 241 242 12 350 207 157 177 111 146 218 219 261 297 300 287 293 291 281 287 295 287 297 38 90 83 76 84 66 38 14
338 328 322 294 312 319 281 309 284 307 309 197 195 230 27 19 358 7 17 38 58 104 159 128 92 48 272 343 342 320 301 305 298 290 255 251 144 115 94 90 80 88 84 74 36